sat.trackr.live / text

‹ back to catalog

STARLINK-35748

NORAD 66206 · 2025-244A

PAYLOAD ACTIVE UNKNOWN

§ Identity

Operator
Country
US
Launch date
2025-10-28
Launch site
AFWTR
Launch vehicle
Mass (kg)
RCS (m²)

Purposes: comms

External: N2YO · Heavens-Above · Gunter

§ Orbital elements

Epoch: 2026-09-20T14:27:38.147904Z

Period
93.85 min
Inclination
53.1581°
Eccentricity
0.0000552
Mean motion
15.34410424 rev/d
Perigee alt
462.3 km
Apogee alt
463.0 km
Semi-major
6,840.8 km
B*
6.4800e-4
RAAN
40.8698°
Arg perigee
73.2067°
Mean anomaly
286.8996°
Rev number
5,155

§ Raw data

STARLINK-357481 66206U 25244A   26263.60252486  .00021588  00000+0  64800-3 0  99932 66206  53.1581  40.8698 0000552  73.2067 286.8996 15.34410424 51559

JSON: /api/v1/satellites/66206 · /tle

For live sub-satellite position, see the globe view (requires WebGL).

§ Visibility from observer

Set your observer location to see the next 7 days of passes ≥ 10°. The values pass through the URL so the page stays shareable.

No JS? Fill the form by hand. The geolocation button needs JavaScript.